User: anonymous   Login
Location: Alexandria
(38.8050°N, 77.0470°W)
Time: 08:42:10
(UTC-05:00)
Language:

Hubble Space Telescope - Orbit

View from above orbital plane
View from above orbital plane
View from above satellite
View from above satellite

Ground track
Ground track

The orbit data is extracted from the following two-line orbital elements,

1 20580U 90037B   18049.80515706  .00000509  00000-0  20240-4 0  9994
2 20580  28.4687 177.6461 0002584 310.6900 179.6837 15.08981184327572
Epoch (UTC): 18 February 2018 19:19:25
Eccentricity: 0.0002584
inclination: 28.4687°
perigee height: 537 km
apogee height: 541 km
right ascension of ascending node: 177.6461°
argument of perigee: 310.6900°
revolutions per day: 15.08981184
mean anomaly at epoch: 179.6837°
orbit number at epoch: 32757

The dashed part of the orbit path shows where the satellite is in the earth's shadow,  

DLR